Location: Duffs
(47.4500°N, 53.1167°W)
Time: 12:15:44
(UTC+00:00)

Envisat - Pass Details

Date: 23 May 2022
Orbit: 764 x 765 km, 98.2° (Epoch: 02 July)

Event Time Altitude Azimuth Distance (km) Brightness Sun altitude
Rises 06:40:48 0° 32° (NNE) 3,242 8.1 -9.5°
Reaches altitude 10° 06:44:37 10° 61° (ENE) 2,309 6.9 -9.1°
Maximum altitude 06:46:44 13° 86° (E) 2,132 6.1 -8.8°
Drops below altitude 10° 06:48:52 10° 111° (ESE) 2,301 5.8 -8.5°
Sets 06:52:38 0° 140° (SE) 3,219 6.2 -8.1°
